GFSFLT2_850_temp_078.txt.gz
Temp
14 12 12 12 13 13 14 12 12 13 14 14 13 14 13 13 13 13 13 12 12 12 12 12 12 12 12 12 12 12 12 12
14 12 12 11 11 12 12 12 12 12 12 13 13 13 13 13 13 12 12 12 12 12 12 12 12 12 12 12 12 12 12 12
12 11 11 11 12 13 14 12 12 11 10 11 12 13 12 13 12 12 12 12 12 12 12 12 11 11 11 11 12 12 12 12
11 11 11 11 12 13 13 11 11 10 10 11 12 13 13 13 12 12 12 12 12 12 12 12 12 12 11 11 11 11 12 12
11 11 11 11 11 11 11 11 11 9 10 12 13 12 12 13 12 11 12 13 12 12 12 12 12 12 11 11 11 11 11 11
11 11 11 11 11 10 11 9 9 10 10 11 12 13 13 13 12 12 13 12 12 12 12 12 12 12 11 12 11 11 11 11
10 10 10 10 10 10 10 10 9 10 10 11 12 13 12 12 12 12 12 12 13 12 12 12 12 11 12 12 11 11 11 11
10 10 9 9 9 9 9 10 11 10 11 11 12 12 12 12 12 12 12 12 12 12 12 12 12 12 12 11 11 11 11 11
10 10 9 9 10 10 10 10 10 10 10 12 12 12 12 12 12 12 12 11 11 12 11 12 12 12 11 11 11 11 11 10
10 9 9 8 9 9 9 9 9 10 10 11 12 13 13 13 13 12 11 11 11 11 11 12 11 11 11 11 11 11 10 10
10 9 9 8 8 8 8 8 9 9 10 11 12 12 12 13 12 12 11 11 11 11 11 12 11 11 11 11 10 10 10 10
9 9 9 8 8 8 8 9 9 9 10 10 11 11 12 12 12 11 11 11 10 11 11 12 11 10 10 10 10 10 10 10
9 9 9 8 8 8 8 8 9 9 9 10 11 11 12 11 11 11 11 11 11 11 11 10 11 10 10 10 10 10 10 10
9 9 9 9 8 8 9 9 9 9 10 10 10 11 11 11 11 11 11 11 11 11 11 11 11 10 10 10 9 10 10 10
9 9 9 9 8 9 8 9 9 9 9 10 10 11 11 11 11 11 11 11 11 11 11 11 11 10 10 9 9 9 10 10
9 9 9 9 8 9 9 9 9 10 10 11 12 11 11 11 11 11 10 10 11 11 11 11 11 10 10 9 9 9 9 8
10 10 9 9 9 9 9 9 10 11 11 11 11 11 11 11 11 11 11 11 11 11 11 11 11 10 10 9 9 9 8 7
11 10 9 9 9 9 9 9 10 11 11 11 11 11 11 11 11 11 11 11 11 11 11 10 10 10 9 9 8 8 8 8
12 11 10 9 9 9 9 10 10 10 11 11 11 11 11 11 11 11 12 12 11 11 11 10 10 10 10 9 8 8 8 8
15 14 12 11 10 10 10 10 10 10 10 11 11 12 12 12 12 12 12 12 12 12 11 11 11 10 10 9 9 8 8 8

GFSFLT2_850_temp_084.txt.gz
Temp
13 13 14 14 14 13 13 14 14 14 14 11 12 13 13 13 12 13 13 12 13 13 13 13 13 12 12 11 11 10 11 10
12 13 13 14 13 14 12 12 13 13 12 12 12 12 13 12 12 12 13 12 13 13 13 13 13 12 12 11 12 10 10 10
12 12 12 13 12 13 12 13 12 12 11 12 11 11 12 12 11 13 13 12 13 13 12 12 12 12 11 11 10 10 10 10
11 12 12 12 12 12 12 12 12 12 11 11 10 10 12 11 12 13 13 12 12 12 12 12 11 10 11 10 10 10 10 10
11 12 11 12 12 12 12 12 12 11 11 11 10 10 11 11 11 12 12 12 11 11 11 10 9 9 8 9 9 9 10 9
11 11 11 11 11 11 11 12 12 11 11 11 10 11 11 10 10 11 12 11 11 11 10 9 9 9 9 8 9 9 10 9
11 11 11 11 11 11 11 11 11 11 10 10 10 10 11 12 11 11 11 10 10 9 9 9 11 8 9 8 9 9 9 9
11 11 11 10 11 11 11 10 10 10 10 9 9 8 10 12 12 12 12 12 9 9 10 10 9 9 9 10 9 8 8 9
10 10 11 10 10 10 10 10 10 10 9 8 8 9 12 12 12 12 12 12 12 11 11 10 9 9 9 9 8 8 8 8
9 10 10 9 9 10 9 9 9 8 8 9 9 11 12 12 11 12 12 12 12 12 11 9 9 10 9 9 9 8 8 8
10 9 9 9 9 9 9 9 9 8 8 8 10 12 12 12 11 11 11 11 11 11 10 10 10 9 9 9 9 9 9 8
9 10 9 9 9 9 9 8 8 8 9 10 12 11 11 11 11 12 12 13 11 11 11 11 10 10 10 9 9 9 8 8
10 9 9 9 9 9 9 8 8 8 9 10 10 10 11 12 12 12 13 12 10 11 11 11 11 10 9 9 9 10 10 9
9 9 9 9 9 9 9 8 8 9 9 9 9 10 11 12 12 12 11 11 11 11 11 11 10 10 9 9 10 9 9 10
9 9 9 9 8 9 9 8 8 8 8 8 9 9 10 11 11 11 11 11 12 11 11 11 9 9 10 10 11 12 11 10
9 9 9 9 8 8 9 9 8 8 8 9 8 9 10 10 11 11 12 12 11 11 11 10 10 9 9 9 10 10 11 11
9 9 9 9 9 9 9 8 9 8 8 9 9 9 10 10 10 10 11 11 11 11 11 11 10 9 10 10 9 9 9 10
9 9 9 9 9 9 8 9 9 8 9 10 10 10 10 10 10 11 11 11 11 11 11 10 10 9 9 9 9 9 10 9
9 9 9 9 9 9 8 9 9 9 10 10 10 10 10 9 11 11 11 11 11 11 11 11 10 10 10 9 9 9 9 9
10 9 10 9 9 9 9 8 9 9 9 9 9 9 9 9 10 10 11 11 11 11 10 10 10 10 10 9 9 8 10 10

GFSFLT2_850_temp_090.txt.gz
Temp
18 17 18 17 16 15 13 14 14 14 14 13 13 12 12 13 12 13 14 14 14 14 13 13 13 12 12 12 13 13 12 10
16 16 14 13 15 13 13 13 14 14 13 13 13 12 11 12 12 12 13 13 14 14 13 13 13 12 12 13 12 12 11 10
15 14 13 13 13 13 13 13 13 13 12 12 12 11 11 11 12 12 11 14 14 14 13 13 13 12 12 12 12 12 11 10
12 13 13 13 13 12 12 13 13 13 13 12 12 11 11 11 12 11 13 14 13 13 13 12 12 12 12 12 12 12 11 11
13 15 14 13 12 12 12 12 12 12 12 12 11 12 11 10 11 11 13 13 13 13 12 12 12 11 12 12 12 12 12 11
12 14 13 13 12 12 12 12 12 12 11 12 11 12 11 11 12 12 12 12 12 12 11 11 11 11 11 11 12 11 11 11
15 13 13 13 12 12 11 12 12 11 11 11 11 11 11 11 11 11 12 12 12 11 10 10 11 11 10 11 12 11 11 11
14 12 13 13 12 12 12 11 12 12 11 11 11 11 11 10 11 11 12 12 11 11 10 10 10 10 10 11 11 11 11 11
13 11 11 11 12 12 12 11 11 11 11 11 11 11 11 10 11 11 11 11 11 10 10 10 10 10 10 10 10 10 10 10
13 11 11 11 10 10 11 11 11 11 11 10 11 11 10 10 10 11 11 11 10 10 10 10 10 10 10 10 10 10 10 9
12 10 10 10 10 10 10 11 10 10 11 10 11 11 10 9 10 11 10 10 10 10 10 10 10 10 10 10 10 10 10 10
11 10 10 10 10 10 10 10 10 10 10 11 10 10 9 9 9 10 9 10 10 10 10 10 10 10 10 10 10 10 10 10
10 10 10 10 9 9 9 9 9 9 9 9 9 9 8 9 9 9 10 10 11 10 10 10 11 11 11 11 10 10 10 10
10 9 10 9 9 9 9 9 8 8 8 7 8 8 8 8 8 8 9 9 9 10 11 11 10 11 11 11 10 10 10 10
10 9 9 9 9 8 8 8 8 9 9 10 9 9 9 8 8 8 8 9 9 10 10 10 10 11 11 11 11 11 11 10
10 9 9 9 9 9 9 10 9 9 8 8 7 7 7 8 7 8 9 10 10 9 10 10 10 11 11 11 10 11 10 11
10 10 9 9 9 9 9 9 8 8 7 7 7 7 7 7 8 9 9 10 9 9 10 10 10 10 10 11 11 11 11 10
10 9 9 9 9 9 9 9 9 7 8 7 7 8 8 9 9 9 9 10 9 10 10 11 10 10 10 10 11 11 11 11
10 9 9 9 9 9 9 9 9 8 8 8 8 8 9 9 10 9 9 9 10 10 11 10 10 11 11 11 11 11 11 11
10 10 10 9 9 9 8 9 9 9 8 8 8 9 10 10 10 10 10 9 10 10 10 10 10 12 12 12 12 11 11 11

GFSFLT2_850_temp_093.txt.gz
Temp
19 18 18 17 16 16 15 15 14 14 13 13 12 13 13 11 12 12 13 13 14 14 13 12 12 12 12 12 11 11 11 11
18 17 17 16 15 15 14 14 14 13 13 13 13 12 12 12 12 12 13 12 13 14 13 12 12 12 12 11 11 11 11 11
17 16 13 13 13 14 13 13 13 13 13 12 13 12 12 11 12 12 12 12 13 13 13 12 12 12 12 11 11 12 12 11
17 16 13 12 12 13 13 13 13 12 12 12 12 12 11 11 11 11 11 12 13 13 13 12 12 12 12 11 12 12 12 11
16 16 13 12 12 12 12 12 13 12 12 12 12 12 11 11 11 10 11 11 12 13 12 12 12 12 12 11 11 11 11 11
16 16 15 12 12 12 12 12 12 12 12 12 11 11 11 11 11 11 12 11 13 12 12 12 12 12 12 10 11 12 12 11
17 16 16 13 11 12 12 11 12 12 12 12 11 12 11 11 11 11 12 12 12 12 12 12 11 11 12 11 11 11 12 11
17 16 15 13 11 11 12 12 12 12 11 12 11 12 10 11 11 11 12 12 12 12 12 11 11 12 12 11 11 11 11 11
16 15 14 13 12 11 11 11 11 12 11 11 11 11 11 12 11 11 12 12 11 11 11 11 10 11 11 10 10 11 11 11
16 14 13 10 11 11 11 11 11 11 11 11 11 11 11 11 11 12 12 11 11 10 11 11 10 11 11 10 10 10 10 10
15 14 11 11 10 10 10 11 11 11 11 11 11 11 11 11 11 11 12 11 11 10 10 10 10 10 10 10 10 10 10 10
14 13 10 10 10 9 10 10 10 10 10 11 11 11 11 10 10 10 11 11 10 10 10 10 10 10 10 10 10 10 10 10
14 13 10 10 9 9 9 10 9 9 9 9 10 10 10 10 10 9 11 11 10 10 10 10 10 10 10 10 10 10 10 10
14 12 10 9 9 9 9 9 9 10 10 10 10 10 10 10 9 10 10 10 10 10 10 10 10 11 11 10 10 10 10 10
14 12 9 9 9 9 9 9 9 9 9 9 9 9 10 9 9 10 10 10 10 10 11 11 11 11 10 10 10 10 10 10
13 11 9 9 9 9 9 9 8 8 8 8 8 8 9 9 9 9 9 9 10 10 11 11 11 11 10 11 11 11 10 10
12 10 9 9 8 9 9 9 8 8 9 9 9 8 8 8 8 9 9 9 10 10 10 10 10 11 11 11 11 11 11 11
12 10 9 9 9 9 9 9 9 9 9 9 8 9 8 8 8 8 8 8 9 10 10 10 10 10 11 11 11 11 11 11
12 10 9 9 9 9 9 9 10 10 10 9 7 7 7 7 7 8 8 9 9 10 10 10 10 10 10 12 11 11 11 11
13 10 9 9 9 9 9 10 9 10 10 9 7 8 8 8 8 8 9 9 9 9 10 10 10 10 10 10 11 10 11 11

GFSFLT2_850_temp_096.txt.gz
Temp
20 19 19 18 17 16 14 15 14 14 14 13 14 13 14 15 14 13 13 13 12 13 12 12 11 11 11 11 11 12 12 11
19 19 18 18 17 15 14 14 14 13 13 13 14 14 13 14 13 13 12 13 12 13 12 12 11 11 10 10 11 11 11 11
19 18 18 18 16 14 13 13 13 13 12 12 13 13 13 13 11 12 12 12 12 13 12 11 11 11 11 11 11 11 11 11
18 18 17 17 16 14 13 13 12 12 12 12 13 13 12 11 11 11 11 12 12 13 11 11 11 11 11 11 11 11 11 11
18 17 17 17 15 13 13 13 12 12 12 12 12 12 12 11 11 11 11 11 12 12 11 11 11 11 11 12 11 11 11 11
18 16 16 16 15 13 12 12 12 12 12 12 12 12 11 12 11 11 11 11 12 11 11 11 11 11 11 11 11 11 11 11
18 16 16 16 15 13 12 12 12 13 12 12 11 11 11 11 11 10 12 11 12 12 11 11 11 11 11 11 11 11 11 11
18 16 15 15 15 13 12 12 12 12 12 12 11 11 11 11 11 11 12 12 12 12 11 12 11 11 11 11 11 11 11 11
18 16 16 15 15 12 11 11 11 12 11 11 11 11 11 11 11 11 11 12 12 12 11 11 11 11 11 11 11 11 11 11
17 16 15 15 14 12 11 11 11 11 12 11 11 11 10 11 11 11 11 12 12 12 12 11 11 10 10 11 10 10 11 11
17 16 15 14 14 11 11 11 11 11 11 11 11 11 10 10 10 10 11 12 12 12 11 11 11 10 10 10 10 10 11 10
17 16 15 14 11 10 10 10 10 11 11 11 11 11 11 10 10 11 12 12 11 11 10 11 11 10 10 10 10 10 10 10
16 16 15 14 11 10 9 10 10 10 11 11 11 11 11 10 11 10 11 12 11 11 10 10 11 10 10 9 9 10 10 10
16 15 15 14 12 9 9 9 10 10 10 10 10 11 11 11 10 10 10 10 11 11 11 10 10 10 11 10 9 9 9 10
16 15 15 13 11 9 9 10 9 9 9 9 10 10 11 10 10 11 9 10 11 10 10 10 10 10 11 10 9 9 9 9
16 15 14 13 11 9 9 9 9 9 9 9 10 10 10 10 10 10 9 10 10 10 10 10 10 10 10 10 10 10 10 10
15 14 13 13 10 9 8 9 9 9 9 8 9 10 10 10 10 9 9 10 10 10 10 10 11 11 12 10 10 11 11 11
14 13 13 11 10 9 8 8 8 8 8 8 8 8 8 8 9 8 9 9 9 10 10 10 10 11 10 10 11 11 11 11
14 12 12 11 9 9 8 8 8 8 8 8 8 8 8 8 8 8 8 8 9 8 10 10 10 10 10 11 10 11 11 11
14 12 12 11 9 9 9 8 8 8 8 9 9 9 9 9 10 9 9 8 8 8 9 11 10 10 10 11 10 11 11 11

GFSFLT2_850_temp_102.txt.gz
Temp
21 20 20 19 18 17 16 16 16 16 15 15 15 15 14 14 14 14 14 13 15 15 13 13 13 12 12 12 12 12 12 12
20 20 20 19 18 17 16 16 15 15 15 14 14 14 14 14 13 13 13 13 14 13 12 12 13 12 12 12 11 11 11 11
20 19 19 18 18 16 14 14 14 13 13 14 14 13 13 13 13 12 13 12 12 12 12 14 11 12 11 11 11 11 11 10
21 20 19 18 18 17 14 14 14 13 13 13 13 13 14 13 12 12 12 12 12 12 13 11 11 11 11 11 11 11 11 10
21 20 18 18 17 17 15 13 13 13 13 13 13 12 13 13 13 12 11 11 11 11 12 12 11 11 11 11 11 11 11 10
20 20 18 18 16 16 16 14 13 12 13 13 13 13 13 12 12 13 11 11 11 10 11 11 11 11 11 11 10 11 10 10
20 19 18 18 17 15 15 15 14 13 12 12 12 12 12 12 12 12 11 11 10 10 10 10 11 11 10 10 10 10 10 10
19 19 18 17 17 15 15 14 14 13 12 12 12 12 12 11 11 11 10 11 10 10 10 10 10 10 10 10 11 11 10 9
20 19 18 17 17 15 14 14 13 13 12 12 12 11 11 11 11 11 11 10 9 10 10 10 10 10 11 10 10 10 9 9
20 19 18 17 16 15 14 13 12 13 12 12 12 12 11 11 11 10 11 10 9 10 10 10 10 10 10 10 10 10 10 9
20 20 19 17 16 15 14 13 12 12 12 12 12 11 11 11 10 10 10 10 9 10 10 10 10 10 10 10 10 10 9 9
19 19 18 17 16 14 13 13 12 11 11 12 11 11 11 11 10 10 10 10 9 9 10 9 10 10 10 9 10 9 9 9
19 19 18 16 16 15 14 13 11 10 11 12 11 11 11 11 10 10 10 9 9 8 9 10 9 10 10 9 8 9 9 9
19 19 17 17 16 15 14 14 11 10 10 11 11 11 11 10 10 10 10 8 8 9 10 9 9 10 10 9 7 7 8 8
20 18 17 17 16 15 14 13 11 10 9 10 10 10 10 10 10 10 9 10 9 8 9 9 9 10 10 10 8 8 8 8
19 16 16 16 16 15 14 13 13 11 9 9 10 10 10 10 10 10 9 9 8 8 9 9 9 10 9 10 11 10 9 9
18 15 15 16 16 14 13 12 12 11 10 9 9 10 10 10 10 10 10 9 9 9 9 9 10 10 9 9 10 11 10 10
15 14 15 14 14 14 13 12 12 8 8 9 9 9 10 9 10 10 9 8 8 9 9 9 10 10 10 10 10 10 11 11
14 14 15 14 13 13 12 12 11 10 9 9 8 9 10 9 9 10 10 9 9 8 9 9 9 10 10 10 10 9 11 11
15 14 15 15 13 13 12 11 10 10 9 9 8 9 9 9 9 9 9 9 8 7 7 9 9 9 9 9 10 9 10 11

GFSFLT2_850_temp_108.txt.gz
Temp
21 21 20 19 19 18 17 17 17 17 17 17 17 16 15 15 15 15 15 15 14 14 14 14 14 14 14 14 14 14 12 12
21 21 20 19 18 18 17 17 16 16 16 16 15 15 15 14 14 15 14 14 14 14 13 13 13 13 13 13 13 13 13 12
21 20 19 19 18 18 17 16 16 15 15 15 15 14 14 14 14 14 14 14 13 13 13 13 13 13 13 13 13 12 12 12
20 20 19 19 17 15 17 17 16 14 14 14 14 13 13 13 13 13 13 13 13 13 12 12 12 12 12 12 12 12 12 11
19 20 19 19 16 14 15 16 14 14 14 14 14 14 14 13 13 13 13 13 13 12 12 12 12 12 11 11 11 11 12 11
17 19 19 19 15 16 15 17 15 15 14 13 14 14 14 13 13 12 12 12 12 12 12 11 11 12 11 11 11 11 11 11
16 20 19 19 18 16 15 14 16 16 14 14 14 13 13 13 13 13 13 12 12 12 12 11 11 11 11 11 11 11 11 12
16 19 19 18 18 18 18 17 14 17 15 14 14 13 13 13 13 13 12 13 12 12 12 12 11 10 11 11 10 11 11 11
17 19 19 18 18 18 18 18 18 17 16 14 13 13 13 12 13 12 12 12 12 11 11 11 10 10 11 10 10 10 10 10
18 18 19 18 17 17 18 18 17 16 16 15 14 13 13 12 12 12 12 12 11 11 10 10 10 10 10 9 9 10 10 10
18 17 19 17 15 15 17 17 17 16 15 15 14 13 12 12 12 12 11 12 11 10 10 10 10 9 9 9 10 10 10 10
18 17 18 16 13 15 17 17 16 15 15 15 14 13 13 12 12 11 12 11 10 10 10 9 10 9 10 9 9 10 9 9
20 19 18 15 14 15 16 17 16 15 15 14 13 13 13 12 11 11 11 11 10 10 9 9 9 9 9 9 9 9 9 8
18 18 16 15 14 15 15 16 16 15 15 14 13 13 11 12 11 11 11 10 10 9 9 10 9 9 8 9 8 8 8 8
16 15 14 13 12 12 12 15 14 14 15 13 12 12 10 11 11 11 11 10 10 9 9 9 8 8 8 9 8 8 8 8
15 14 13 12 12 12 12 15 15 15 15 14 11 12 11 11 11 10 11 10 10 10 9 8 9 8 9 9 10 10 10 8
14 13 12 11 11 12 12 12 12 12 11 12 12 11 11 11 10 10 10 10 10 10 8 8 8 8 9 8 9 10 10 10
12 12 12 10 11 12 11 12 12 12 13 14 13 11 10 10 10 10 10 10 10 9 8 8 8 9 9 8 10 9 9 10
13 11 11 10 10 12 11 12 12 12 13 12 13 10 10 10 10 10 9 10 10 9 8 8 9 9 9 9 9 10 11 11
13 12 10 10 10 11 11 10 11 11 12 13 13 10 9 10 10 10 10 9 9 9 8 8 9 9 8 8 9 9 11 11

GFSFLT2_850_temp_111.txt.gz
Temp
22 22 21 20 20 19 18 18 17 17 17 17 16 16 16 16 16 15 15 15 15 15 15 14 14 14 14 14 14 14 15 13
22 21 21 20 20 19 18 18 17 17 16 16 16 15 15 15 15 15 15 14 14 15 15 13 14 14 13 13 14 13 13 13
20 21 21 20 20 20 18 17 17 16 16 16 16 15 14 14 14 14 14 14 14 14 14 13 13 13 12 13 13 13 13 12
18 17 16 19 20 20 19 18 17 17 16 15 15 14 14 14 13 13 14 13 13 13 13 13 13 13 12 12 12 12 12 12
19 17 16 17 16 16 15 17 15 15 14 14 14 14 14 14 14 13 13 13 13 12 13 13 12 13 12 12 12 13 12 12
19 18 16 16 17 17 17 16 15 14 14 15 15 14 14 14 13 13 13 12 12 12 13 12 12 12 12 12 12 10 11 12
20 18 17 16 17 17 17 16 18 14 14 14 14 14 14 14 13 13 13 13 13 12 12 12 12 13 12 12 11 11 10 11
21 19 17 16 16 16 16 16 15 17 15 14 15 14 14 14 14 14 13 13 13 13 12 13 13 13 12 11 11 11 10 11
21 19 17 18 15 15 15 16 15 15 17 15 14 14 14 14 13 13 13 12 13 13 12 12 12 12 11 11 10 11 12 11
22 20 17 18 16 16 14 15 14 15 14 15 17 16 14 13 13 13 13 12 12 12 12 11 11 11 11 11 11 11 11 11
22 20 18 16 15 16 15 14 14 14 13 17 17 16 15 14 12 12 12 12 12 12 12 11 11 10 10 10 10 11 11 11
21 20 18 16 15 15 16 14 13 14 15 17 17 16 15 13 12 12 12 12 11 12 11 10 10 10 10 10 10 10 10 11
20 19 19 17 16 16 15 14 13 14 14 13 13 15 15 14 12 12 12 12 12 11 11 10 10 10 9 9 10 10 10 11
19 19 18 17 16 16 14 13 13 13 14 13 13 13 14 13 11 11 12 11 11 11 10 10 10 9 9 9 9 9 9 10
18 18 18 17 16 15 13 12 13 13 14 15 14 14 13 11 11 11 11 11 11 11 10 10 9 9 9 9 9 9 9 9
17 17 17 17 16 14 12 12 12 12 12 13 12 13 13 12 11 11 11 11 10 10 10 11 9 9 9 9 9 10 9 8
16 15 16 16 16 14 12 12 12 13 12 12 12 13 13 11 11 10 11 11 10 10 10 9 9 9 9 8 9 9 10 10
15 15 15 15 15 14 13 12 13 14 13 12 12 12 12 11 10 11 10 10 10 10 10 9 9 8 8 8 9 9 10 11
15 15 15 14 13 12 12 12 12 14 14 13 11 11 12 11 11 11 10 10 10 10 9 9 9 8 8 8 8 9 9 10
14 14 15 14 13 10 11 11 13 14 13 12 11 11 11 11 10 10 10 10 10 10 10 9 8 8 8 8 9 8 9 10

GFSFLT2_850_temp_117.txt.gz
Temp
23 22 22 22 21 21 20 19 19 19 19 18 18 17 16 16 16 16 15 15 15 15 15 15 15 15 15 14 14 14 13 13
23 22 22 22 21 21 21 20 19 19 19 18 18 17 16 16 16 15 15 14 14 14 14 15 15 15 14 14 14 13 13 12
22 22 22 22 21 21 21 20 20 19 19 18 18 17 17 16 16 15 15 14 14 14 14 14 15 15 14 14 14 13 12 13
22 22 22 22 21 21 21 20 20 19 18 18 18 18 17 16 16 15 15 14 14 14 14 14 14 14 14 14 14 13 12 13
22 22 22 22 21 21 21 20 20 19 18 18 17 17 17 16 16 15 15 14 14 14 13 14 14 14 14 14 14 13 13 12
21 21 21 21 21 21 21 20 20 20 19 18 17 17 16 16 16 15 14 14 14 14 13 13 13 14 14 13 13 13 13 13
22 22 22 21 20 21 20 20 20 19 19 19 18 17 16 15 15 15 14 14 14 14 13 13 13 13 13 13 13 13 13 12
22 22 23 22 22 21 20 19 18 18 18 19 18 18 16 16 15 15 15 14 14 13 13 13 13 13 13 13 13 13 12 12
21 22 22 21 21 20 19 19 17 17 18 18 18 17 16 16 15 15 15 14 14 13 12 12 12 12 13 13 13 13 12 12
22 21 21 21 21 19 18 18 17 17 17 17 17 17 16 15 15 15 14 14 13 13 12 12 12 12 13 13 13 12 12 11
23 22 21 21 20 20 19 18 17 16 16 16 16 16 15 15 15 14 14 13 13 13 12 12 12 12 13 12 13 12 12 11
23 22 22 21 20 20 19 18 16 16 16 16 15 15 15 14 14 14 13 13 13 13 12 12 12 12 12 12 12 11 11 11
23 22 21 20 19 18 17 19 18 16 16 16 16 15 14 13 13 13 13 13 13 13 12 12 11 11 11 11 11 11 10 10
21 20 20 20 19 18 18 19 19 17 16 15 15 15 14 14 14 14 13 13 12 12 12 12 12 11 11 10 10 10 10 10
21 19 18 19 19 18 18 17 16 16 15 14 14 14 14 13 14 13 13 12 12 12 12 11 11 10 11 10 10 10 10 10
20 19 19 18 17 17 18 18 18 17 16 15 14 14 14 13 13 13 13 12 11 10 10 10 11 10 10 10 10 11 9 9
18 18 18 18 18 17 16 17 17 16 16 15 14 14 13 13 12 12 12 12 11 11 10 10 10 10 10 10 10 10 11 10
16 16 16 16 16 15 16 15 17 16 16 15 14 13 13 13 12 12 12 11 12 11 10 10 10 10 10 9 10 10 10 10
15 15 16 15 15 15 14 14 15 15 15 15 14 13 12 12 12 12 12 12 11 11 10 10 10 10 9 10 9 9 10 9
15 15 15 14 14 15 14 13 13 14 14 14 13 13 13 12 12 12 11 11 11 10 9 10 10 10 9 10 9 9 9 9

GFSFLT2_850_temp_123.txt.gz
Temp
22 22 20 20 20 19 20 20 19 19 18 18 18 18 17 17 17 17 17 16 16 16 15 15 14 14 14 14 14 14 14 14
23 22 21 20 19 19 19 19 19 19 19 18 18 18 17 17 17 17 16 16 16 16 15 15 15 14 14 13 13 13 13 13
23 22 21 20 20 19 19 19 19 19 19 18 18 18 17 17 16 16 16 16 16 15 15 15 15 14 14 14 13 13 13 13
22 23 22 21 20 20 19 19 19 19 19 18 18 18 18 17 17 16 15 15 15 15 15 14 14 14 14 13 13 13 13 13
22 22 22 21 21 21 20 20 19 19 19 19 18 18 18 17 17 16 15 15 15 15 14 14 14 14 14 14 13 13 13 13
22 22 22 22 22 21 21 21 20 20 20 19 18 18 18 18 17 16 16 15 15 15 14 14 14 13 14 13 13 13 13 13
22 22 22 22 21 22 21 21 21 21 20 20 19 19 18 18 17 16 16 15 15 15 14 14 13 13 13 13 13 13 13 13
22 22 22 22 22 21 22 21 21 21 20 20 20 19 19 18 17 16 16 15 15 15 14 14 13 13 13 13 13 13 13 12
22 22 22 21 21 21 21 21 21 21 20 20 20 19 19 18 17 16 16 15 14 14 14 13 13 12 12 12 12 12 12 12
22 22 22 21 21 21 21 21 21 21 20 20 19 19 19 18 17 17 16 14 14 14 14 13 13 12 12 12 12 12 12 12
22 22 22 22 21 21 21 20 20 20 19 19 18 18 18 18 17 17 15 14 14 13 13 13 13 13 12 12 12 12 12 12
21 21 22 22 21 20 20 19 19 19 18 18 17 17 17 17 17 16 15 14 13 13 13 13 13 13 12 12 12 12 12 12
21 22 22 22 21 20 19 20 19 18 18 17 16 16 16 16 16 15 15 13 13 13 13 12 12 11 12 12 11 11 11 11
22 22 22 22 22 22 20 20 20 19 18 18 17 16 16 16 15 15 14 13 13 12 12 12 12 12 12 11 11 11 11 10
22 22 22 22 21 20 19 17 18 18 17 18 17 17 16 15 15 15 14 14 14 13 13 12 12 12 11 12 11 11 11 11
21 20 19 19 18 16 17 17 18 18 18 18 18 17 16 15 15 14 14 14 13 13 13 13 12 12 12 11 11 11 11 10
17 16 15 15 15 14 16 17 17 17 17 17 17 17 16 15 15 14 14 14 13 13 13 12 12 12 11 11 10 10 10 10
13 13 13 13 14 15 16 17 16 16 17 16 16 16 16 15 15 14 14 14 14 13 12 12 12 12 11 11 11 11 10 9
14 14 14 14 14 14 15 15 15 16 15 15 15 15 14 15 15 15 14 14 14 14 14 13 12 12 11 11 10 10 10 10
14 14 15 15 15 15 15 15 15 14 14 15 14 14 14 13 14 14 14 13 13 13 13 13 13 11 11 10 10 10 10 10